This is the latest recevied weather packets stored in our database for station/object KB2EAR-13. If no packets are shown the sender has not sent any weather packets the latest 10 day(s).
| Time | Temp. | Humidity | Pressure | Rain* | Wind** | Luminosity | Snow |
|---|---|---|---|---|---|---|---|
| 1777583899 | 16.67° C | 61% | 1008.2 hPa | 0 mm | - | - | - |
| 1777583717 | 16.67° C | 61% | 1008.2 hPa | 0 mm | - | - | - |
| 1777583627 | 16.11° C | 63% | 1008.2 hPa | 0 mm | - | - | - |
| 1777583117 | 16.11° C | 63% | 1008.3 hPa | 0 mm | - | - | - |
| 1777581450 | 16.11° C | 66% | 1007.9 hPa | 0 mm | - | - | - |
| 1777580717 | 15.56° C | 67% | 1007.8 hPa | 0 mm | - | - | - |
| 1777580417 | 15.56° C | 66% | 1007.9 hPa | 0 mm | - | - | - |
| 1777580307 | 15.56° C | 66% | 1007.8 hPa | 0 mm | - | - | - |
| 1777580117 | 15.56° C | 66% | 1007.8 hPa | 0 mm | - | - | - |
| 1777579817 | 16.11° C | 68% | 1007.8 hPa | 0 mm | - | - | - |
| 1777579517 | 16.11° C | 68% | 1007.7 hPa | 0 mm | - | - | - |
| 1777579331 | 16.11° C | 68% | 1007.7 hPa | 0 mm | - | - | - |
| 1777577808 | 16.11° C | 67% | 1007.5 hPa | 0 mm | - | - | - |
| 1777577717 | 16.11° C | 67% | 1007.5 hPa | 0 mm | - | - | - |
| 1777577417 | 16.11° C | 69% | 1007.5 hPa | 0 mm | - | - | - |
| 1777577117 | 16.11° C | 70% | 1007.5 hPa | 0 mm | - | - | - |
| 1777577004 | 16.11° C | 70% | 1007.6 hPa | 0 mm | - | - | - |
| 1777576817 | 16.11° C | 70% | 1007.6 hPa | 0 mm | - | - | - |
| 1777576477 | 15.56° C | 69% | 1007.9 hPa | 0 mm | - | - | - |
| 1777576217 | 15.56° C | 69% | 1007.9 hPa | 0 mm | - | - | - |
| 1777575238 | 15° C | 74% | 1008 hPa | 0 mm | - | - | - |
| 1777575017 | 15° C | 74% | 1008 hPa | 0 mm | - | - | - |
| 1777573649 | 14.44° C | 79% | 1008.1 hPa | 0 mm | - | - | - |
| 1777573517 | 14.44° C | 79% | 1008.1 hPa | 0 mm | - | - | - |
| 1777572432 | 14.44° C | 80% | 1008.1 hPa | 0 mm | - | - | - |
* Rain latest hour (hover to see other rain measurements)
** Current wind speed in m/s (hover to see current wind gust speed)